Location: Red Deer
(52.2681°N, 113.8112°W)
Time: 05:12:42
(UTC-06:00)

QB50P2 - Visible Passes

Search period start: 22 May 2022 00:00
Search period end: 01 June 2022 00:00
Orbit: 589 x 607 km, 97.9° (Epoch: 21 May)

Date Brightness Start Highest point End Pass type
(mag) Time Alt. Az. Time Alt. Az. Time Alt. Az.
22 May ? 01:33:28 10° ENE 01:33:56 10° E 01:34:25 10° E visible
22 May ? 03:06:09 10° NNE 03:10:21 79° ESE 03:12:57 22° S visible
22 May ? 04:42:58 10° NNW 04:45:30 16° WNW 04:48:02 10° W visible
23 May ? 01:42:45 10° ENE 01:44:42 13° E 01:46:38 10° ESE visible
23 May ? 03:16:46 10° NNE 03:20:58 83° WNW 03:23:44 21° SSW visible
24 May ? 01:52:47 10° NE 01:55:26 16° E 01:57:47 11° SE visible
24 May ? 03:27:24 10° N 03:31:33 66° WNW 03:34:30 19° SSW visible
25 May ? 02:03:02 10° NE 02:06:08 20° E 02:08:32 13° SE visible
25 May ? 03:38:02 10° N 03:42:07 52° WNW 03:45:15 16° SW visible
26 May ? 02:13:21 10° NE 02:16:49 25° E 02:19:16 15° SE visible
26 May ? 03:48:42 10° N 03:52:39 42° WNW 03:55:59 14° SW visible
27 May ? 02:23:45 10° NNE 02:27:28 30° E 02:30:00 17° SSE visible
27 May ? 03:59:23 10° N 04:03:10 34° WNW 04:06:43 11° SW visible
28 May ? 02:34:11 10° NNE 02:38:06 38° E 02:40:44 18° SSE visible
28 May ? 04:10:05 10° N 04:13:40 28° WNW 04:17:13 10° WSW visible
29 May ? 02:44:38 10° NNE 02:48:43 48° E 02:51:26 19° SSE visible
29 May ? 04:20:49 10° N 04:24:08 23° WNW 04:27:26 10° WSW visible
30 May ? 02:55:08 10° NNE 02:59:17 61° ESE 03:02:08 19° S visible
30 May ? 04:31:35 10° NNW 04:34:35 19° WNW 04:37:34 10° WSW visible
31 May ? 03:05:38 10° NNE 03:09:50 77° ESE 03:12:49 19° S visible
